Date String (YYYY-MM-DD hh:mm:ss) UTC,Instrument flags,Ambient pressure (hPa),Sample flow (lpm),Bypass flow (lpm),Sample temperature (°C),Ambient temperature (°C),ASC tube jacket temperature (°C),LED temperature (°C),Box temperature (°C),Sample RH (%),Span deviation,Mass concentration (μg/m³),Mass concentration (μg/m³),Mass concentration (μg/m³)
DateTimeUTC,F1_M11,P_M11,Q1_M11,Q2_M11,T1_M11,T2_M11,T3_M11,T4_M11,T5_M11,U1_M11,ZSPAN_M11,X0_M11,X2_M11,X1_M11
2021-09-11 02:00:00,,0828.1,5.00,0.00,29.1,28.2,00.0,37.9,31.0,12.5,0001.1,0028.38,0016.34,0014.46
2021-09-11 02:01:00,,0828.1,5.01,0.00,29.0,26.3,00.0,37.9,30.5,12.3,0001.2,0027.40,0016.31,0014.47
2021-09-11 02:02:00,,0828.0,4.99,0.00,28.8,25.2,00.0,37.9,30.1,12.2,0000.8,0027.99,0016.36,0014.49
2021-09-11 02:03:00,,0828.1,5.01,0.00,28.8,25.5,00.0,37.9,30.2,12.4,0000.7,0027.87,0016.34,0014.49
2021-09-11 02:04:00,,0828.1,4.99,0.00,28.7,26.0,00.0,37.9,30.3,12.1,0000.7,0028.36,0016.30,0014.45
2021-09-11 02:05:00,,0828.1,5.00,0.00,28.7,26.5,00.0,37.9,30.4,12.0,0000.6,0028.06,0016.28,0014.44
2021-09-11 02:06:00,,0828.1,5.00,0.00,28.8,26.9,00.0,37.8,30.6,11.9,0000.8,0027.92,0016.30,0014.45
2021-09-11 02:07:00,,0828.1,5.00,0.00,28.8,27.3,00.0,37.8,30.7,12.0,0000.6,0028.13,0016.25,0014.44
2021-09-11 02:08:00,,0828.1,5.00,0.00,28.9,27.6,00.0,37.9,30.8,12.0,0000.5,0028.22,0016.22,0014.43
2021-09-11 02:09:00,,0828.1,4.99,0.00,28.9,27.9,00.0,37.9,30.9,12.1,0000.5,0027.86,0016.11,0014.42
2021-09-11 02:10:00,,0828.2,4.99,0.00,29.0,28.1,00.0,37.9,31.0,12.2,0000.6,0028.52,0016.05,0014.42
2021-09-11 02:11:00,,0828.2,5.00,0.00,29.1,28.3,00.0,37.9,31.0,12.1,0000.7,0030.04,0016.13,0014.41
2021-09-11 02:12:00,,0828.2,5.00,0.00,29.1,28.5,00.0,38.0,31.1,12.0,0000.9,0030.69,0016.20,0014.42
2021-09-11 02:13:00,,0828.2,5.01,0.00,29.2,28.0,00.0,38.0,31.0,12.1,0000.8,0030.41,0016.15,0014.39
2021-09-11 02:14:00,,0828.1,4.99,0.00,29.1,26.0,00.0,38.0,30.4,12.1,0001.0,0030.45,0016.12,0014.39
2021-09-11 02:15:00,,0828.2,5.00,0.00,28.9,25.3,00.0,38.0,30.1,12.2,0000.5,0030.15,0016.10,0014.39
2021-09-11 02:16:00,,0828.3,5.00,0.00,28.8,25.6,00.0,38.0,30.3,12.2,0000.9,0029.80,0016.09,0014.41
2021-09-11 02:17:00,,0828.2,5.00,0.00,28.8,26.1,00.0,37.9,30.4,12.2,0000.9,0030.19,0016.09,0014.40
2021-09-11 02:18:00,,0828.2,5.00,0.00,28.8,26.6,00.0,37.9,30.5,12.3,0001.1,0029.88,0016.12,0014.42
2021-09-11 02:19:00,,0828.4,5.02,0.00,28.8,27.0,00.0,37.9,30.6,12.2,0001.3,0029.65,0016.14,0014.43
2021-09-11 02:20:00,,0828.2,5.00,0.00,28.9,27.4,00.0,37.9,30.7,12.2,0001.6,0030.33,0016.19,0014.45
2021-09-11 02:21:00,,0828.3,5.00,0.00,28.9,27.7,00.0,37.9,30.8,12.2,0001.6,0029.98,0016.23,0014.46
2021-09-11 02:22:00,,0828.3,4.99,0.00,29.0,28.0,00.0,37.9,30.9,12.2,0001.5,0028.57,0016.20,0014.48
2021-09-11 02:23:00,,0828.3,4.99,0.00,29.1,28.2,00.0,38.0,31.0,12.1,0001.2,0027.80,0016.14,0014.45
2021-09-11 02:24:00,,0828.3,5.01,0.00,29.1,28.3,00.0,38.0,31.1,12.1,0001.6,0028.67,0016.16,0014.44
2021-09-11 02:25:00,,0828.3,5.00,0.00,29.2,28.5,00.0,38.0,31.1,11.9,0001.3,0028.60,0016.18,0014.44
2021-09-11 02:26:00,,0828.3,5.00,0.00,29.2,27.7,00.0,38.1,30.9,11.9,0001.4,0028.35,0016.17,0014.44
2021-09-11 02:27:00,,0828.3,4.99,0.00,29.0,25.7,00.0,38.0,30.3,12.1,0001.0,0029.03,0016.23,0014.46
2021-09-11 02:28:00,,0828.3,5.01,0.00,28.9,25.3,00.0,38.0,30.2,12.2,0000.8,0028.66,0016.28,0014.48
2021-09-11 02:29:00,,0828.3,5.00,0.00,28.8,25.7,00.0,38.0,30.3,12.2,0000.9,0029.03,0016.30,0014.47
2021-09-11 02:30:00,,0828.3,5.00,0.00,28.8,26.2,00.0,38.0,30.4,12.2,0000.6,0029.76,0016.33,0014.48
2021-09-11 02:31:00,,0828.3,5.00,0.00,28.8,26.7,00.0,37.9,30.5,12.2,0000.3,0030.76,0016.34,0014.50
2021-09-11 02:32:00,,0828.4,4.99,0.00,28.9,27.1,00.0,37.9,30.7,12.2,0000.1,0030.77,0016.33,0014.50
2021-09-11 02:33:00,,0828.4,5.00,0.00,28.9,27.5,00.0,37.9,30.8,12.2,-000.1,0030.70,0016.37,0014.51
2021-09-11 02:34:00,,0828.4,5.01,0.00,29.0,27.8,00.0,38.0,30.8,12.2,-000.2,0030.93,0016.36,0014.52
2021-09-11 02:35:00,,0828.5,5.00,0.00,29.0,28.0,00.0,38.0,30.9,12.2,-000.2,0030.84,0016.38,0014.54
2021-09-11 02:36:00,,0828.5,5.00,0.00,29.1,28.2,00.0,38.0,31.0,12.1,0000.3,0030.97,0016.40,0014.52
2021-09-11 02:37:00,,0828.5,4.98,0.00,29.2,28.4,00.0,38.0,31.1,12.0,0000.2,0030.54,0016.34,0014.51
2021-09-11 02:38:00,,0828.5,5.01,0.00,29.2,28.5,00.0,38.1,31.2,12.1,0000.6,0030.51,0016.39,0014.50
2021-09-11 02:39:00,,0828.4,5.00,0.00,29.3,28.2,00.0,38.1,31.1,12.0,0000.7,0030.71,0016.41,0014.48
2021-09-11 02:40:00,,0828.5,5.00,0.00,29.2,26.2,00.0,38.1,30.6,12.0,0000.6,0030.37,0016.39,0014.47
2021-09-11 02:41:00,,0828.5,5.00,0.00,29.0,25.2,00.0,38.1,30.2,12.1,0000.6,0029.94,0016.37,0014.48
2021-09-11 02:42:00,,0828.5,4.99,0.00,28.9,25.5,00.0,38.0,30.3,12.2,0000.7,0028.47,0016.37,0014.46
2021-09-11 02:43:00,,0828.5,4.99,0.00,28.9,26.0,00.0,38.0,30.4,12.2,0000.9,0028.12,0016.43,0014.45
2021-09-11 02:44:00,,0828.5,5.00,0.00,28.9,26.5,00.0,38.0,30.5,12.2,0001.3,0027.91,0016.41,0014.44
2021-09-11 02:45:00,,0828.5,5.00,0.00,28.9,27.0,00.0,38.0,30.7,12.1,0001.5,0027.33,0016.42,0014.46
2021-09-11 02:46:00,,0828.9,5.00,0.00,28.9,27.3,00.0,38.0,30.7,12.1,0001.2,0026.51,0016.46,0014.46
2021-09-11 02:47:00,,0829.1,5.00,0.00,29.0,27.6,00.0,38.0,30.8,12.0,0001.0,0026.74,0016.44,0014.46
2021-09-11 02:48:00,,0829.0,5.00,0.00,29.0,27.9,00.0,38.0,30.9,12.0,0001.3,0027.22,0016.52,0014.48
2021-09-11 02:49:00,,0829.0,4.99,0.00,29.1,28.1,00.0,38.0,31.0,11.8,0001.3,0027.87,0016.49,0014.47
2021-09-11 02:50:00,,0829.0,5.01,0.00,29.2,28.3,00.0,38.1,31.1,11.8,0001.0,0028.24,0016.45,0014.49
2021-09-11 02:51:00,,0829.1,5.01,0.00,29.2,28.4,00.0,38.1,31.1,11.7,0001.0,0029.07,0016.49,0014.50
2021-09-11 02:52:00,,0828.9,5.00,0.00,29.3,28.6,00.0,38.1,31.2,11.6,0001.0,0028.67,0016.50,0014.48
2021-09-11 02:53:00,,0829.1,5.01,0.00,29.3,28.1,00.0,38.1,31.1,11.6,0001.3,0029.01,0016.48,0014.49
2021-09-11 02:54:00,,0829.0,4.99,0.00,29.2,26.1,00.0,38.1,30.6,11.6,0001.4,0029.87,0016.42,0014.50
2021-09-11 02:55:00,,0828.7,5.00,0.00,29.0,25.3,00.0,38.1,30.3,11.8,0001.1,0030.50,0016.46,0014.50
2021-09-11 02:56:00,,0828.6,5.01,0.00,28.9,25.7,00.0,38.1,30.4,11.8,0000.9,0030.80,0016.44,0014.47
2021-09-11 02:57:00,,0828.6,4.99,0.00,28.9,26.1,00.0,38.1,30.5,11.8,0001.1,0030.93,0016.34,0014.44
2021-09-11 02:58:00,,0828.9,5.01,0.00,28.9,26.6,00.0,38.0,30.6,11.9,0001.2,0030.68,0016.31,0014.44
2021-09-11 02:59:00,,0828.8,4.99,0.00,28.9,27.0,00.0,38.0,30.7,11.8,0001.3,0031.40,0016.26,0014.41
